Chevak, AK

11:07 AM AKDT on March 30, 2017 (GMT -0800)
Chevak

Weather History for PAVA - July, 2013

Change the Weather History Date:

Monday, July 1, 2013

  Actual Average (PAHP) Record (PAHP)
Temperature  
Mean Temperature 46 °F -  
Max Temperature 48 °F 51 °F 60 °F (2016)
Min Temperature 44 °F 43 °F 39 °F (2006)
Degree Days  
Heating Degree Days 19    
Moisture  
Dew Point 43 °F    
Average Humidity 89    
Maximum Humidity 100    
Minimum Humidity 80    
Precipitation  
Precipitation 0.10 in - - ()
Sea Level Pressure  
Sea Level Pressure 29.29 in    
Wind  
Wind Speed 20 mph (South)    
Max Wind Speed 28 mph    
Max Gust Speed 37 mph    
Visibility 10 miles    
Events Rain    
Averages and records for this station are not official NWS values.
T = Trace of Precipitation, MM = Missing Value Source: NWS Daily Summary

Daily Weather History Graph

Daily Weather History Graph

Search for Another Location

Airport or City:

Trip Planner

Search our weather history database for the weather conditions in past years. The results will help you decide how hot, cold, wet, or windy it might be!

Date:

Astronomy

Jul. 01, 2013 Rise Set
Actual Time 5:26 AM AKDT 12:45 AM AKDT
Civil Twilight 3:38 AM AKDT 2:34 AM AKDT
Nautical Twilight Sun does not rise Sun does not rise
Astronomical Twilight Sun does not rise Sun does not rise
Moon 2:26 AM AKDT (7/1) 6:03 PM AKDT (7/1)
Length of Visible Light 22h 55m
Length of Day
19h 19m
Waning Crescent, 34% of the Moon is Illuminated
Jul 1
Waning Crescent
Jul 7
New
Jul 15
First Quarter
Jul 22
Full
Jul 29
Last Quarter

Hourly Weather History & Observations

Time (AKDT) Temp. Windchill Dew Point Humidity Pressure Visibility Wind Dir Wind Speed Gust Speed Precip Events Conditions
12:27 AM 44.6 °F 36.4 °F 42.8 °F 93% 29.32 in 10.0 mi SE 20.7 mph - N/A   Overcast
12:52 AM 46.4 °F 37.5 °F 42.8 °F 87% 29.32 in 10.0 mi SE 27.6 mph 36.8 mph N/A   Overcast
12:57 AM 46.0 °F 38.3 °F 41.0 °F 83% 29.32 in 10.0 mi SE 20.7 mph 36.8 mph N/A   Overcast
1:35 AM 44.6 °F 35.9 °F 42.8 °F 93% 29.30 in 10.0 mi SE 23.0 mph 32.2 mph 0.00 in Rain Light Rain
1:57 AM 45.0 °F 36.9 °F 43.0 °F 93% 29.31 in 10.0 mi SE 20.7 mph 29.9 mph 0.00 in Rain Light Rain
2:40 AM 44.6 °F 35.5 °F 42.8 °F 93% 29.28 in 10.0 mi SE 25.3 mph 28.8 mph 0.01 in Rain Light Rain
2:45 AM 44.6 °F 35.3 °F 42.8 °F 93% 29.28 in 10.0 mi SE 26.5 mph 31.1 mph 0.01 in Rain Light Rain
2:57 AM 44.1 °F 35.4 °F 42.1 °F 93% 29.29 in 10.0 mi SE 21.9 mph 34.5 mph 0.01 in Rain Light Rain
3:57 AM 44.1 °F 35.4 °F 42.1 °F 93% 29.27 in 10.0 mi SE 21.9 mph 28.8 mph 0.01 in Rain Light Rain
4:57 AM 44.1 °F 35.0 °F 42.1 °F 93% 29.24 in 10.0 mi SE 24.2 mph 31.1 mph 0.00 in Rain Light Rain
5:57 AM 44.1 °F 34.6 °F 43.0 °F 96% 29.24 in 10.0 mi SE 26.5 mph 31.1 mph 0.01 in   Overcast
6:22 AM 44.6 °F 35.9 °F 42.8 °F 93% 29.22 in 8.0 mi SE 23.0 mph 33.4 mph 0.00 in Rain Light Rain
6:57 AM 44.1 °F 35.0 °F 43.0 °F 96% 29.23 in 7.0 mi SE 24.2 mph 32.2 mph 0.00 in Rain Light Rain
7:57 AM 45.0 °F 36.2 °F 43.0 °F 93% 29.22 in 10.0 mi SE 24.2 mph 29.9 mph 0.00 in Rain Light Rain
8:57 AM 45.0 °F 36.4 °F 43.0 °F 93% 29.22 in 7.0 mi SE 23.0 mph 28.8 mph 0.01 in Rain Light Rain
9:57 AM 45.0 °F 36.0 °F 44.1 °F 97% 29.23 in 7.0 mi SE 25.3 mph 32.2 mph 0.01 in Rain Light Rain
10:57 AM 46.0 °F 38.5 °F 44.1 °F 93% 29.24 in 10.0 mi SE 19.6 mph - 0.01 in Rain Light Rain
11:57 AM 46.0 °F 37.6 °F 44.1 °F 93% 29.24 in 10.0 mi SE 24.2 mph 31.1 mph 0.02 in Rain Light Rain
12:57 PM 46.4 °F 39.0 °F 44.6 °F 93% 29.24 in 10.0 mi SSE 19.6 mph - 0.00 in Rain Light Rain
1:06 PM 46.0 °F 38.5 °F 44.1 °F 93% 29.25 in 10.0 mi SSE 19.6 mph 26.5 mph 0.00 in   Overcast
1:22 PM 46.4 °F 38.7 °F 44.6 °F 93% 29.24 in 10.0 mi SSE 20.7 mph - 0.00 in Rain Light Rain
1:57 PM 46.0 °F 39.0 °F 44.1 °F 93% 29.26 in 10.0 mi SSE 17.3 mph - 0.00 in Rain Light Rain
2:57 PM 46.0 °F 39.6 °F 45.0 °F 96% 29.27 in 10.0 mi South 15.0 mph - 0.00 in Rain Light Rain
3:51 PM 44.6 °F 38.1 °F 44.6 °F 100% 29.27 in 8.0 mi South 13.8 mph - 0.01 in   Overcast
3:57 PM 45.0 °F 39.3 °F 44.1 °F 97% 29.28 in 7.0 mi South 11.5 mph - 0.01 in   Overcast
4:00 PM 44.6 °F 38.4 °F 44.6 °F 100% 29.27 in 8.0 mi South 12.7 mph - N/A   Overcast
4:25 PM 46.4 °F 40.4 °F 42.8 °F 87% 29.27 in 10.0 mi South 13.8 mph - N/A   Overcast
4:57 PM 46.9 °F - 44.1 °F 90% 29.29 in 10.0 mi South 16.1 mph 20.7 mph 0.00 in Rain Light Rain
5:11 PM 46.4 °F 40.1 °F 42.8 °F 87% 29.28 in 8.0 mi SSW 15.0 mph - 0.01 in Rain Light Rain
5:57 PM 48.0 °F - 44.1 °F 86% 29.30 in 10.0 mi South 17.3 mph - 0.01 in Rain Light Rain
6:01 PM 48.2 °F - 44.6 °F 87% 29.29 in 10.0 mi SSW 13.8 mph - 0.00 in   Overcast
6:13 PM 48.2 °F - 42.8 °F 82% 29.29 in 10.0 mi SSW 17.3 mph - 0.00 in   Overcast
6:57 PM 48.0 °F - 42.1 °F 80% 29.31 in 10.0 mi SSW 20.7 mph 24.2 mph 0.00 in   Overcast
7:27 PM 46.4 °F 40.1 °F 42.8 °F 87% 29.30 in 10.0 mi SSW 15.0 mph - N/A   Overcast
7:57 PM 46.9 °F - 41.0 °F 80% 29.32 in 10.0 mi SSW 15.0 mph - N/A   Overcast
8:12 PM 46.4 °F 40.1 °F 41.0 °F 81% 29.31 in 10.0 mi South 15.0 mph - N/A   Overcast
8:20 PM 46.4 °F 40.4 °F 41.0 °F 81% 29.31 in 10.0 mi South 13.8 mph - N/A   Overcast
8:33 PM 46.4 °F 40.1 °F 41.0 °F 81% 29.31 in 10.0 mi SSW 15.0 mph - N/A   Overcast
8:57 PM 46.0 °F 40.2 °F 41.0 °F 83% 29.32 in 10.0 mi SSW 12.7 mph - N/A   Overcast
9:12 PM 46.4 °F 41.1 °F 41.0 °F 81% 29.32 in 10.0 mi South 11.5 mph - N/A   Overcast
9:18 PM 46.4 °F 41.1 °F 41.0 °F 81% 29.32 in 10.0 mi SSW 11.5 mph - N/A   Overcast
9:28 PM 46.4 °F 41.1 °F 41.0 °F 81% 29.32 in 10.0 mi SSW 11.5 mph - N/A   Overcast
9:40 PM 46.4 °F 41.5 °F 41.0 °F 81% 29.32 in 10.0 mi SSW 10.4 mph - N/A   Overcast
9:45 PM 46.4 °F 41.1 °F 42.8 °F 87% 29.32 in 10.0 mi SSW 11.5 mph - N/A   Overcast
9:57 PM 46.0 °F 40.6 °F 42.1 °F 86% 29.33 in 10.0 mi South 11.5 mph - N/A   Overcast
10:23 PM 46.4 °F 40.1 °F 42.8 °F 87% 29.33 in 10.0 mi SSW 15.0 mph - N/A   Overcast
10:47 PM 44.6 °F 38.4 °F 42.8 °F 93% 29.33 in 10.0 mi SSW 12.7 mph - N/A   Overcast
10:57 PM 45.0 °F 39.7 °F 42.1 °F 90% 29.34 in 10.0 mi SSW 10.4 mph - N/A   Overcast
11:46 PM 44.6 °F 39.2 °F 42.8 °F 93% 29.34 in 10.0 mi SSW 10.4 mph - N/A   Overcast
11:57 PM 45.0 °F 39.7 °F 42.1 °F 90% 29.35 in 10.0 mi SSW 10.4 mph - N/A   Overcast